Overview Statistics Trail Chart Weather Telemetry Raw packets
 

This is the latest recevied weather packets stored in our database for station/object N7BTW-13. If no packets are shown the sender has not sent any weather packets the latest 10 day(s).

<< 52 53 54 55 56 57 58 >>
Time Temp. Humidity Pressure Rain* Wind** Luminosity Snow
1787821209 15° C 90% - 0 mm - - -
1787820611 15° C 88% - 0 mm - - -
1787820007 15° C 88% - 0 mm - - -
1787819409 15.56° C 88% - 0 mm - - -
1787818810 15.56° C 88% - 0 mm - - -
1787818208 15.56° C 87% - 0 mm - - -
1787817609 15.56° C 87% - 0 mm - - -
1787817011 15.56° C 87% - 0 mm - - -
1787816406 15.56° C 85% - 0 mm - - -
1787815807 16.11° C 85% - 0 mm - - -
1787815208 16.11° C 85% - 0 mm - - -
1787814610 16.67° C 81% - 0 mm - - -
1787814010 16.67° C 82% - 0 mm - - -
1787813406 17.22° C 82% - 0 mm - - -
1787812809 17.22° C 80% - 0 mm - - -
1787812207 17.78° C 75% - 0 mm - - -
1787811608 18.33° C 73% - 0 mm - - -
1787811006 18.89° C 73% - 0 mm - - -
1787810414 19.44° C 72% - 0 mm - - -
1787809808 20° C 70% - 0 mm - - -
1787809208 20° C 69% - 0 mm - - -
1787808608 20.56° C 68% - 0 mm - - -
1787808009 20.56° C 67% - 0 mm - - -
1787807407 20.56° C 67% - 0 mm - - -
1787806810 21.11° C 65% - 0 mm - - -

* Rain latest hour (hover to see other rain measurements)
** Current wind speed in m/s (hover to see current wind gust speed)